LogoCoinalyze
    Ad-Free Version Hauptseite Märkte Finanzierungsraten
    Futures-Daten
    • Aggregierte Daten (Coins)
    • Einzelne Charts
    • Globale Charts
    Preisalarme
    TA
    Bitcoin Ethereum BNB Ripple Tron ZCash Dogecoin Monero Chainlink UNUS SED LEO Cardano Stellar Lumens Bitcoin Cash Litecoin Hedera Cronos Polkadot Ethereum Classic Algorand Cosmos Quant Dash VeChain Bitcoin SV BitTorrent Terra Decred Tezos Iota The Graph THETA Decentraland NEO Chiliz MultiversX Horizen Golem Basic Attention Token Qtum DigiByte 0x Beam RIF Token FTX Token Holo FUNToken Ontology Zilliqa Nano Enjin Coin Ravencoin aelf Mask Network Verge Siacoin Status WINk Waves IoTeX iExec RLC Power Ledger Steem Kyber Network Crystal Lisk Ark WOO Network Ardor IOST WAX Icon Storj Wanchain Loopring Bitcoin Diamond Augur AdEx Bitcoin Gold OmiseGO NEM MonaCoin BitShares Ren Komodo V Systems Nuls Mithril SOLVE Maker EOS Aion Nebulas HedgeTrade Bread Fetch.ai TomoChain Polygon Fantom Waltonchain GXChain Bytom Metaverse ETP MaidSafeCoin QASH
    Bestellen nach:
    Mehr
    • API
    • Kerzenformationen
    • Spenden
    • Kontakt
    • Sitemap
    • Privacy Policy
    • Disclaimer
    • Theme:
    Deutsch
    • English
    • Français
    • Русский
    • Türkçe
    • Nederlands
    • Português (BR)
    • Español
    • 한국어
    • 简体中文
    • 日本語
     
    Anmelden / Registrieren
    Markets/ Pepe/ PEPE zu TRY/ PEPETRY Binance
    Trades
    WL
    Chat
    Stat
    Neuigkeiten
    ⦷
    AAA
    0.00017680 84861.00000000 01:19:13
    0.00017665 258110.00000000 01:18:26
    0.00017667 57732.00000000 01:18:13
    0.00017668 3601000.00000000 01:18:13
    0.00017686 84830.00000000 01:16:30
    0.00017686 19321027.00000000 01:16:04
    0.00017686 25412773.00000000 01:16:04
    0.00017681 42834600.00000000 01:14:11
    0.00017687 173019.00000000 01:14:11
    0.00017688 3599000.00000000 01:14:11
    0.00017682 3599000.00000000 01:14:10
    0.00017674 57716.00000000 01:14:03
    0.00017677 3539310.00000000 01:14:02
    0.00017681 57690.00000000 01:14:02
    0.00017683 44818500.00000000 01:14:01
    0.00017680 42665066.00000000 01:14:01
    0.00017681 84734.00000000 01:14:01
    0.00017686 57660.00000000 01:14:01
    0.00017688 3597000.00000000 01:14:01
    0.00017698 84780.00000000 01:13:35
    0.00017696 91695754.00000000 01:13:35
    0.00017696 25208415.00000000 01:13:35
    0.00017696 25208415.00000000 01:13:35
    0.00017717 91556525.00000000 01:12:48
    0.00017717 82087751.00000000 01:12:48
    0.00017716 5565870.00000000 01:12:48
    0.00017715 172767.00000000 01:12:48
    0.00017714 44733800.00000000 01:12:48
    0.00017717 273639878.00000000 01:12:19
    0.00017717 25182406.00000000 01:12:19
    0.00017721 84632.00000000 01:12:17
    0.00017722 172677.00000000 01:12:17
    0.00017723 84622.00000000 01:12:17
    0.00017725 172638.00000000 01:12:17
    0.00017717 84651.00000000 01:11:58
    0.00017696 84787.00000000 01:11:15
    0.00017694 84813.00000000 01:11:15
    0.00017687 169500.00000000 01:11:08
    0.00017707 1577087.00000000 01:10:41
    0.00017707 1577087.00000000 01:10:40
    0.00017687 75564500.00000000 01:10:30
    0.00017682 173079.00000000 01:09:03
    0.00017682 173070.00000000 01:09:01
    0.00017697 172923.00000000 01:08:48
    0.00017695 172941.00000000 01:08:03
    0.00017693 24815284.00000000 01:08:01
    0.00017687 173000.00000000 01:07:56
    0.00017690 172900.00000000 01:07:28
    0.00017698 172923.00000000 01:07:21
    0.00017688 27308549.00000000 01:07:18
    0.00017689 77451503.00000000 01:07:18
    0.00017690 50214979.00000000 01:07:18
    0.00017691 42834587.00000000 01:07:18
    0.00017692 44733800.00000000 01:07:18
    0.00017693 84761.00000000 01:07:18
    0.00017695 44906732.00000000 01:07:18
    0.00017696 44733800.00000000 01:07:18
    0.00017697 24385214.00000000 01:07:17
    0.00017680 3602000.00000000 01:06:58
    0.00017646 85037.00000000 01:06:36
    0.00017643 1416992.00000000 01:06:30
    0.00017632 85189.00000000 01:06:03
    0.00017630 85189.00000000 01:06:02
    0.00017626 85208.00000000 01:06:01
    0.00017622 85247.00000000 01:05:56
    0.00017613 23063398.00000000 01:05:44
    0.00017587 75067778.00000000 01:04:30
    0.00017585 21749808.00000000 01:04:30
    0.00017585 23158115.00000000 01:04:30
    0.00017589 23599923.00000000 01:04:30
    0.00017581 127938703.00000000 01:04:30
    0.00017583 44733800.00000000 01:04:30
    0.00017585 44733800.00000000 01:04:30
    0.00017589 44733800.00000000 01:04:30
    0.00017594 85317.00000000 01:04:29
    0.00017592 85317.00000000 01:04:28
    0.00017588 78.00000000 01:04:28
    0.00017588 75067700.00000000 01:04:28
    0.00017577 44733800.00000000 01:04:28
    0.00017579 44903405.00000000 01:04:28
    0.00017581 44733800.00000000 01:04:28
    0.00017599 173844.00000000 01:04:28
    0.00017600 44853657.00000000 01:04:28
    0.00017613 3611000.00000000 01:04:26
    0.00017622 16282928.00000000 01:04:14
    0.00017622 3611000.00000000 01:03:58
    0.00017615 258747.00000000 01:03:28
    0.00017623 24030879.00000000 01:03:23
    0.00017636 3604000.00000000 01:03:20
    0.00017638 41654583.00000000 01:03:14
    0.00017639 84926.00000000 01:03:14
    0.00017640 44733800.00000000 01:03:14
    0.00017641 84905.00000000 01:03:14
    0.00017642 44992195.00000000 01:03:14
    0.00017659 84921.00000000 01:02:00
    0.00017660 84883.00000000 01:02:00
    0.00017663 84811.00000000 01:01:24
    0.00017664 78328808.00000000 01:01:24
    0.00017665 5566064.00000000 01:01:24
    0.00017668 173166.00000000 01:01:24
    Abmelden
    AAA
    Hilfe
    🙂 🤣 😎 🤗 😛 😉 😜 🤑 🤔 😑 😴 😕 🙃 😲 😇 🙁 😢 😬 😟 😠 🕺 🏃 💪 ✌ 👌 👍 👎 👏 👋 🤝 🍺 🍻 🐋 🐟 🦈 🗽 🚄 ✈ 🛑 🚀 🏦 🌚 ⭐ 🌞 ⚡ 🏆 💰 💲 🔨 ❓ ❗ 💯 🔶 🏁
    ☺
    Anmelden oder Registrieren zum Chatten
    24 Stunden
    Veränderung
    +6.42%
    Volumen
    1,528,085,842,785
    Hoch
    0.00018655
    Tief
    0.00016426
    7 Tage
    Veränderung
    -5.54%
    Volumen
    5,672,382,704,189
    Hoch
    0.00019062
    Tief
    0.00016213
    30 Tage
    Veränderung
    +29.18%
    Volumen
    38,488,848,065,723
    Hoch
    0.00021642
    Tief
    0.00012111
    DOGE, SHIB, PEPE, or Something Else: Which Meme Coin Can Make History in September? (3 AIs Weigh In)
    "DOGE remains the most likely to record the largest move in dollar terms and lead the entire sector," ChatGPT stated.
    cryptopotato.com
    Sept 3, 2026 00:41
    Pepe price rallies 25% as whale demand and futures interest surge
    Key takeaways Pepe has gained 25% this week, including a combined 22% advance over the previous two days. Seven whale transactions worth more than $1 million each occurred Thursday, the highest...
    coinjournal.net
    Aug 21, 2026 08:41
    PEPE Supply on Exchanges Just Took a Massive Hit – What’s Next?
    A drop in PEPE exchange balances has added to bullish expectations despite muted trader interest.
    cryptopotato.com
    Aug 6, 2026 20:02
    PEPE Exchange Outflows Hit Nearly 2-Year High as Whales Accumulate
    Pepe (PEPE) recorded its largest single-day exchange outflow since November 2024, with 4.54 trillion tokens leaving trading platforms, signaling that holders are moving supply away from immediate...
    beincrypto.com
    Aug 6, 2026 04:57
    Meme Coin Based on White House Shooter Conspiracy Rallies 320%
    $HENRY surged 300% after a 2023 Pepe tweet appeared to name the White House shooter, fueling a viral time-travel meme. The post Meme Coin Based on White House Shooter Conspiracy Rallies 320%...
    beincrypto.com
    Apr 27, 2026 16:11
    PEPE surges 4% as market sentiment improves, eyes Key resistance breakout
    Key takeaways Pepe extends gains on Wednesday, stretching its rally from the 50-day EMA. Derivatives data show heightened retail activity as risk-on sentiment returns to the market. Pepe (PEPE) is...
    coinjournal.net
    Apr 22, 2026 11:44
    Why The PEPE Price Could Stage A 55X Rally To Reach New $0.0001 ATH
    The PEPE price has now started to edge back into bullish conversations after the recent inflows into the crypto market. The last time PEPE’s weekly chart printed the kind of structure now...
    newsbtc.com
    Apr 21, 2026 15:30
    Pepe (PEPE) surges 9%, drawing interest from whales
    Key takeaways PEPE is up 9% in the last 24 hours, making it one of the best performers among the top 50 cryptocurrencies by market cap. The rally comes amid renewed interest from whales and retail...
    coinjournal.net
    Apr 16, 2026 07:40
    Murad Says SPX6900 (SPX) Is Primed for a Rally — Is He Right This Time?
    Crypto influencer Murad Mahmudov claims SPX6900 (SPX) is stabilizing at the same market cap level where Dogecoin (DOGE) and Pepe (PEPE) consolidated before their explosive rallies. The...
    beincrypto.com
    Apr 5, 2026 21:36
    The Shiba Inu Of This Cycle: Analyst Shares Why It Is Better To Buy PEPE Now
    In the bull market cycle of 2021-2022, the Shiba Inu meme coin made waves in a way that changed the face of meme coins forever. This came after Dogecoin’s initial 36,000% rally, and Shiba Inu...
    newsbtc.com
    Apr 4, 2026 07:30
    PEPE Explodes by 18% Amid Altcoin Rally, BTC Tapped $74K: Market Watch
    The frog-themed meme coin is today's biggest gainer, followed by TAO, DOT, and BONK.
    cryptopotato.com
    Mar 16, 2026 10:56
    Should PEPE traders brace for volatility as short squeeze potential builds?
    The memecoin market has seen its collective market capitalization drop by 48% over the past year, and 6.9% over the past month, according to CoinMarketCap. According to Glassnode, the memecoin...
    ambcrypto.com
    Mar 7, 2026 18:00
    Geben Sie einfach das Kommando im Chat ein. Ersetzen Sie dabei nick1 durch den jeweiligen Nick.
    • /ignore nick1 Einen Chat-User ignorieren
    • /unignore nick1 Einen Chat-User nicht mehr ignorieren
    • /ignorelist Ignorierte Chat-User anzeigen